Regional Weather Roundup
Issued by NWS Portland, ME

Home | Current Version | Previous Version | Text Only | Print | Product List | Glossary On
Versions: 1 2 3 4 5 6 7 8 9 10 11 12 13 14 15 16 17 18 19 20 21 22 23 24 25 26 27 28 29 30 31 32 33 34 35 36 37 38 39 40 41 42 43 44 45 46 47 48 49 50
000
ASUS41 KGYX 191110
RWRGYX
WEATHER ROUNDUP FOR MAINE AND NEW HAMPSHIRE
NATIONAL WEATHER SERVICE GRAY ME
700 AM EDT SAT AUG 19 2017

MEZ002-005-006-010-012-015-018-020-021-024-026-027-029-191200-
MAINE

CITY           SKY/WX    TMP DP  RH WIND       PRES   REMARKS
PORTLAND       CLOUDY    61  60  97 VRB5      29.81R
SANFORD        CLOUDY    62  61  96 N6        29.82R
BAR HARBOR     CLOUDY    60  60 100 E7        29.80S FOG
WISCASSET      CLOUDY    62  60  93 VRB3      29.82R
ROCKLAND       CLOUDY    63  63 100 CALM      29.79R
FRYEBURG       CLOUDY    60  60 100 CALM      29.83S
LEWISTONAUBURN CLOUDY    59  59 100 N6        29.82R
AUGUSTA        CLOUDY    59  58  96 N7        29.82R FOG
WATERVILLE     CLOUDY    59  59 100 N6        29.80R FOG
BANGOR         DRIZZLE   60  58  92 N7        29.82R FOG
GREENVILLE       N/A     57  57 100 E9        29.83R
MILLINOCKET    CLOUDY    58  58 100 NE6       29.86S FOG
HOULTON        CLOUDY    59  58  96 E7        29.87F FOG
PRESQUE ISLE   CLOUDY    59  56  89 SE10      29.89S
FRENCHVILLE    CLOUDY    56  55  97 S15G28    29.87F
CARIBOU        CLOUDY    60  56  86 SE9       29.88S
$$

NHZ002-005-008-009-011-012-014-191200-
NEW HAMPSHIRE

CITY           SKY/WX    TMP DP  RH WIND       PRES   REMARKS
PORTSMOUTH     CLOUDY    63  61  94 NW6       29.80R
ROCHESTER      LGT RAIN  62  60  93 N5        29.80S
NASHUA         CLOUDY    65  65 100 N3        29.82R FOG
MANCHESTER     CLOUDY    64  61  90 NE3       29.80S
CONCORD        CLOUDY    63  62  97 CALM      29.82R FOG
LACONIA        CLOUDY    62  61  96 NE5       29.83R
PLYMOUTH       CLOUDY    61  60  96 CALM      29.82R
BERLIN         FOG       60  58  92 CALM      29.83S VSB 1/2
WHITEFIELD     CLOUDY    62  59  90 NW3       29.82R
JAFFREY        FOG       64  64 100 CALM      29.84R VSB 1/4
KEENE            N/A    N/A N/A N/A MISG        N/A
LEBANON        FOG       65  65 100 CALM      29.81R VSB 3/4
MT WASHINGTON  FOG       54  54 100 NW17        N/A  VSB 1/16
$$

VTZ005-007-008-191200-
VERMONT

CITY           SKY/WX    TMP DP  RH WIND       PRES   REMARKS
ST JOHNSBURY     N/A     64  64 100 MISG      29.79R
MONTPELIER     CLOUDY    63  63 100 CALM      29.84R FOG
BURLINGTON     MOCLDY    69  69 100 CALM      29.77R FOG
$$

MAZ007-012-024-CTZ003-RIZ002-NYZ038-NYZ072-191200-
SOUTHERN NEW ENGLAND AND NY

CITY           SKY/WX    TMP DP  RH WIND       PRES   REMARKS
BOSTON         CLOUDY    65  65 100 N7        29.80R
WORCESTER      FOG       69  67  93 NE5       29.83R VSB 1/4
NANTUCKET      PTSUNNY   70  70 100 SW7       29.81R FOG
PROVIDENCE     CLOUDY    74  74 100 W5        29.79R
HARTFORD       PTCLDY    70  67  90 W9        29.81R
ALBANY         PTCLDY    66  64  93 CALM      29.82R
NEW YORK CITY  MOCLDY    76  72  87 NW8       29.81R
$$

ANZ081-ANZ082-ANZ150-NHZ014-MEZ023>029-191200-
COASTAL MARINE OBSERVATIONS

STATION/POSITION TIME  TEMP    WIND        PRES    WAVE
                       AIR SEA DIR/SP/G            HT/PER
                 (UTC) (F)     (DEG/KT/KT) (MB)    (FT/S)
MOUNT DESERT ROC 1100   62                 1008.8R
MATINICUS ROCK   1000   65     210/ 16/ 17 1007.9R
ISLE OF SHOALS   1000   61      10/ 11/ 12 1008.4R
JEFFREYS LEDGE   1006      66                N/A     4/ 6
CASHES LEDGE BUO 1050   69 68              1008.4R   5/ 7
GEORGES BANK BUO 0950   69 64              1012.8    3/ 5
$$

.............KEY..............
   WCI - WIND CHILL
   TC  - TEMPERATURE IN CELSIUS
   VSB - VISIBILITY IN MILES
   HX  - HEAT INDEX
   FAIR- INDICATES FEW OR NO CLOUDS BELOW 12,000 FT, WITH NO
         SIGNIFICANT WEATHER AND/OR OBSTRUCTIONS TO VISIBILITY.






USA.gov is the U.S. government's official web portal to all federal, state and local government web resources and services.